Regional Weather Roundup
Issued by NWS

Home | Current Version | Previous Version | Graphics & Text | Print | Product List | Glossary On
Versions: 1 2 3 4 5 6 7 8 9 10 11 12 13 14 15 16 17 18 19 20 21 22 23 24 25 26 27 28
000
ASUS45 KSLC 100210
RWRUT

UTAH REGIONAL WEATHER ROUNDUP
NATIONAL WEATHER SERVICE SALT LAKE CITY UT
700 PM MST FRI DEC 09 2016

UTZ001>011-023>025-100300-

NORTHERN UTAH

CITY           SKY/WX    TMP DP  RH WIND       PRES   REMARKS
BRIGHAM CITY     N/A     34  31  90 CALM      30.10F
HILL AFB       CLOUDY    38  30  74 CALM      30.08F
LOGAN          CLOUDY    33  33 100 CALM      30.09F FOG
OGDEN          CLOUDY    35  32  88 SE3       30.08F
SALT LAKE CITY CLOUDY    33  29  85 SW3       30.09F
WENDOVER       CLOUDY    28  21  74 CALM      30.09F
HEBER CITY     MOCLDY    32  28  86 E5        30.09F WCI  27

$$

UTZ011>015-024>027-100300-

CENTRAL/NORTHEAST UTAH

CITY           SKY/WX    TMP DP  RH WIND       PRES   REMARKS
PROVO AIRPORT  CLEAR     34  30  86 E5        30.13F WCI  30
MOAB/CANYONLAN PTCLDY    24   9  52 W6        30.24F WCI  17
DELTA          CLOUDY    37  27  65 SE8       30.12F WCI  31
PRICE          PTCLDY    28  10  46 E5        30.22F WCI  23
ROOSEVELT      CLOUDY    28  21  74 CALM      30.22F
VERNAL         CLOUDY    27  14  58 CALM      30.19F

$$

UTZ013>016-019>022-027-100300-

SOUTHERN UTAH

CITY           SKY/WX    TMP DP  RH WIND       PRES   REMARKS
BRYCE CANYON   PTCLDY    24  19  81 W7        30.25F WCI  16
CEDAR CITY     PTCLDY    38  30  73 SE7       30.18F WCI  33
MILFORD        MOCLDY    42  28  57 S10       30.17R
ST GEORGE      MOCLDY    46  23  39 SE3       30.24S
HANKSVILLE     CLEAR     23   5  46 NE5       30.28S WCI  17
BLANDING       PTCLDY    31  19  61 NW6       30.32F WCI  25

$$

REGIONAL REPORTS     COLORADO/ARIZONA

CITY           SKY/WX    TMP DP  RH WIND       PRES   REMARKS
CRAIG, CO      CLOUDY    33  26  75 CALM      30.16F
GRAND JUNCTION CLOUDY    27  18  69 E5        30.26S WCI  22
RIFLE, CO      CLOUDY    30  22  72 CALM      30.26S
MONTROSE, CO   CLEAR     30  19  63 NE3       30.27S HAZE
CORTEZ, CO     CLOUDY    31  25  78 NE3       30.27S
COLORADO CITY    N/A     34  30  86 N3        30.26S
PAGE, AZ       CLEAR     40  15  36 CALM      30.24S
GRAND CANYON   CLEAR     31  30  96 NE5       30.28R WCI  26
KINGMAN, AZ    CLEAR     44  29  55 CALM      30.21S
FLAGSTAFF, AZ  CLEAR     32  29  88 CALM      30.27R

$$

REGIONAL REPORTS    NEVADA/IDAHO/WYOMING

CITY           SKY/WX    TMP DP  RH WIND       PRES   REMARKS
LAS VEGAS, NV  MOCLDY    54  13  19 CALM      30.22R
ELY, NY        MOCLDY    32  20  61 SW5       30.16F WCI  27
ELKO, NV       CLOUDY    37  27  67 W3        30.07S
POCATELLO, ID  LGT RAIN  35  33  92 S12       30.06S WCI  27
BURLEY, ID     CLOUDY    35  33  92 N6        30.01F WCI  30
FORT BRIDGER,  CLOUDY    37  29  74 SW10G18   30.10F WCI  30
EVANSTON, WY   CLOUDY    34  25  69 SW12      30.09F WCI  25
ROCK SPRINGS,  CLOUDY    34  27  75 W16       30.07F WCI  24
KEMMERER, WY     N/A     32  30  93 W13       30.06F WCI  22

$$




USA.gov is the U.S. government's official web portal to all federal, state and local government web resources and services.